Location: Azul
(36.7830°S, 59.8500°W)
Time: 19:54:51
(UTC-03:00)

First-Move - Pass Details

Date: 10 October 2023
Orbit: 549 x 625 km, 97.7° (Epoch: 04 December)

Event Time Altitude Azimuth Distance (km) Brightness Sun altitude
Exits shadow 03:06:47 12° 164° (SSE) 1,731 ? -35.7°
Drops below altitude 10° 03:07:10 10° 167° (SSE) 1,863 ? -35.6°
Sets 03:09:31 0° 179° (S) 2,762 ? -35.3°
